Wind_Speed
12 8 10 10 8 8 10 13 10 10 8 9 5 5 6 6 9 12 13 15 14 13 11 14 11 8 9 12 15 18 23 24 25 24 24 24 23 25 25 24 22 22 20 19
14 8 9 11 5 6 5 7 10 8 9 6 5 5 7 8 7 11 13 14 14 14 14 13 14 14 10 11 14 17 20 24 24 23 24 25 24 24 25 25 24 23 23 22
13 3 8 13 11 5 3 4 6 9 7 5 6 8 10 10 4 9 12 13 14 14 15 15 14 13 12 11 13 16 20 21 23 24 24 25 24 25 25 25 24 25 24 24
5 4 10 7 5 2 4 2 1 1 3 5 7 10 11 4 4 10 13 13 13 15 16 16 16 15 14 13 13 16 18 18 21 24 25 24 24 25 25 25 25 25 24 25
5 9 6 7 3 1 4 2 1 4 3 6 10 14 1 3 7 15 17 17 16 18 18 18 16 15 15 14 12 14 15 16 18 20 24 25 25 25 24 23 24 24 24 24
3 7 5 9 5 3 3 8 7 3 7 10 12 11 10 19 18 19 21 21 21 22 21 20 17 16 15 14 11 11 13 14 16 18 22 24 24 24 23 23 23 21 22 22
5 6 6 5 3 2 7 6 8 9 10 12 12 11 17 18 20 25 24 24 23 23 22 21 19 17 17 15 11 12 12 13 8 18 18 20 22 22 20 22 22 22 22 22
2 3 6 4 3 5 9 11 10 10 10 13 14 16 18 19 19 21 26 27 24 23 22 21 20 19 17 16 12 11 13 11 11 22 11 17 21 22 22 21 21 22 20 20
3 4 4 2 6 8 9 10 12 12 15 15 17 19 19 19 20 19 25 27 25 23 23 22 20 20 19 17 14 11 12 17 13 11 10 25 19 20 21 21 23 22 22 24
3 5 4 8 6 4 9 11 13 15 17 17 19 20 21 20 19 17 25 26 27 25 24 23 22 20 21 20 16 14 15 15 14 12 17 19 16 20 21 21 22 24 23 23
6 2 10 4 5 13 14 15 15 16 17 19 20 20 21 21 20 23 26 27 26 24 25 24 23 21 20 21 18 17 16 16 15 15 16 15 15 14 17 20 21 23 23 23
4 8 7 12 14 14 15 15 16 18 19 21 21 17 19 20 26 25 26 27 27 24 28 27 23 23 22 20 21 20 18 17 17 16 15 17 10 13 22 25 21 26 27 18
5 10 11 14 12 11 16 18 18 18 18 16 22 25 23 18 23 25 28 29 28 26 27 28 23 23 23 22 20 22 21 20 18 18 18 15 17 18 17 18 27 29 28 30
7 7 10 11 14 14 15 18 20 22 22 20 21 26 26 23 27 22 22 26 26 25 26 25 22 24 24 22 20 21 21 22 20 20 21 20 20 19 19 17 15 16 25 26
6 8 9 10 12 14 16 16 16 16 15 16 21 20 23 22 21 24 25 26 26 23 25 23 22 24 23 21 20 21 20 22 22 22 23 22 19 18 19 18 18 18 17 25
8 7 8 11 12 13 15 16 17 17 18 18 21 20 26 26 23 24 27 21 18 15 20 20 20 20 20 19 20 21 23 25 22 18 19 18 17 17 17 16 18 20 18 22
8 7 10 10 11 13 15 15 15 14 17 18 20 24 24 23 21 23 18 16 15 18 18 19 19 15 15 15 18 20 18 17 17 19 19 15 15 17 17 18 20 19 20 24
6 7 7 8 9 10 13 16 19 20 17 22 23 22 22 19 14 20 21 18 13 13 15 13 13 12 13 14 18 19 16 15 14 18 17 11 11 12 16 20 21 18 19 21
7 7 5 6 7 10 12 15 18 21 22 22 22 20 20 19 22 22 22 18 12 14 16 20 19 18 18 16 15 13 15 15 14 17 17 11 10 10 11 12 9 11 14 17
8 8 4 4 5 9 12 15 17 18 21 23 23 22 21 21 24 23 19 16 18 18 20 21 17 13 13 12 7 9 11 12 14 15 13 13 13 10 12 15 13 18 13 12
9 7 5 6 7 7 11 15 16 18 20 20 20 20 21 22 25 23 19 11 26 24 17 17 10 6 4 2 4 7 7 9 12 8 9 11 10 8 14 12 15 17 16 13
10 9 7 7 10 6 9 14 17 17 19 19 22 22 24 22 22 24 23 25 26 31 22 19 14 9 5 4 1 1 3 5 8 8 8 11 12 7 5 5 6 10 12 14
10 10 7 10 6 8 8 12 15 17 18 18 20 21 22 24 23 20 13 33 31 32 29 29 27 21 21 10 8 9 6 1 4 5 7 9 10 10 12 10 8 10 18 22
8 9 7 9 9 9 9 10 11 14 16 17 19 18 20 20 21 25 25 33 34 32 35 35 37 35 32 28 27 25 22 20 20 15 3 3 6 8 8 9 12 19 22 22
7 6 8 11 9 9 4 7 8 12 13 16 18 16 17 19 21 24 25 27 34 34 33 36 37 35 31 29 29 26 26 30 26 25 23 21 16 16 20 12 7 4 2 4
6 7 12 10 2 2 4 5 8 11 12 14 16 18 17 16 17 19 19 22 23 23 27 28 29 28 33 35 32 30 29 27 26 29 28 27 26 25 21 15 14 11 11 12
9 7 4 3 5 5 5 7 8 10 11 12 13 15 16 17 18 18 18 19 22 20 20 21 24 25 25 25 25 29 26 25 26 23 25 25 25 25 24 23 24 25 20 18
Wind_Direction
274 294 279 296 278 258 255 272 280 310 314 75 36 21 15 23 19 17 15 14 14 11 8 6 359 318 268 245 229 220 217 217 216 213 214 213 215 215 214 214 218 220 224 228
265 243 256 250 247 258 265 266 263 277 277 64 36 21 12 15 14 16 13 6 3 1 2 4 355 351 326 274 249 232 226 224 219 215 211 211 211 213 215 214 215 217 222 229
262 216 254 248 245 260 287 276 308 271 46 17 3 355 352 341 31 16 2 354 352 350 352 350 345 339 328 322 270 243 232 231 224 217 215 210 210 211 211 216 217 219 224 228
271 188 234 73 77 42 303 249 266 250 15 0 349 337 312 336 25 354 345 338 329 330 336 336 332 333 321 313 309 256 243 236 228 221 217 214 212 213 213 213 217 220 224 228
248 231 114 169 157 303 311 206 193 305 316 344 340 324 340 108 317 328 321 315 311 311 313 314 319 316 317 314 306 299 249 245 240 229 224 218 216 215 215 214 214 219 225 229
178 272 265 74 89 6 289 259 83 3 334 329 328 303 304 347 322 314 311 310 308 303 297 296 301 308 300 304 307 293 295 243 236 236 231 226 222 219 216 217 221 221 226 229
221 264 111 80 42 301 246 54 344 334 323 319 310 309 307 306 303 304 303 303 304 299 294 284 284 294 292 290 289 288 274 276 278 245 230 232 230 222 217 219 225 224 225 226
240 260 238 62 245 273 2 323 329 320 315 307 303 301 301 301 299 301 302 303 301 296 292 289 277 275 279 283 292 291 271 283 256 269 241 236 229 226 218 216 221 224 227 232
295 50 81 356 312 318 314 304 306 307 308 304 299 297 300 298 297 296 294 294 295 289 287 283 278 266 265 271 278 291 281 264 255 291 323 255 234 220 220 217 225 222 225 231
284 115 333 317 292 301 335 319 309 303 302 301 298 298 298 296 297 298 295 293 293 290 283 279 276 268 261 261 263 269 272 269 261 235 237 242 237 228 225 224 221 225 228 228
270 266 328 94 6 332 318 312 304 302 303 302 302 302 302 299 295 292 292 290 290 293 282 278 277 272 270 260 253 251 260 268 261 243 236 240 231 241 236 231 223 227 230 229
355 358 324 310 320 316 310 310 308 306 304 303 305 300 298 296 297 296 292 289 281 279 279 272 270 269 268 262 253 245 247 254 257 254 236 241 239 233 237 235 228 229 239 241
321 322 315 304 299 314 323 319 312 312 308 312 309 302 294 285 291 286 281 277 277 275 275 274 270 267 263 262 255 246 243 249 255 256 253 246 240 242 240 249 237 238 240 243
315 319 311 332 326 322 315 324 327 319 306 302 300 308 311 305 304 298 283 278 280 281 278 265 262 264 262 263 254 244 247 252 251 257 253 244 245 244 244 246 241 236 235 231
338 324 310 314 326 341 331 336 328 321 320 322 318 312 309 309 302 299 297 286 280 276 276 270 262 259 259 258 253 245 243 248 248 247 247 250 250 246 236 240 244 240 219 217
320 307 335 338 346 335 344 336 340 337 328 326 328 316 314 315 307 304 303 294 285 277 276 274 270 265 261 250 248 245 244 242 249 248 245 245 235 235 234 227 224 228 208 209
302 324 340 341 340 347 349 353 351 336 333 329 326 322 323 330 320 306 318 311 295 280 277 277 271 273 263 248 240 243 243 240 216 233 235 224 227 234 226 222 221 221 203 208
296 305 317 335 340 347 353 356 357 358 346 334 326 326 329 330 328 331 330 333 327 324 309 317 297 270 263 250 242 238 235 227 225 227 227 209 221 230 224 222 215 197 199 198
323 316 318 335 352 352 349 351 355 3 356 355 342 335 333 331 333 331 333 327 349 336 322 318 301 279 262 257 242 232 227 221 232 232 224 239 201 213 197 185 174 195 220 166
325 324 309 340 349 357 355 351 347 351 353 356 356 348 343 342 342 342 343 339 328 331 326 331 313 280 265 268 246 227 220 224 226 228 208 215 196 184 180 170 178 155 199 190
313 299 332 320 318 349 2 357 353 355 348 349 358 356 345 347 348 346 347 342 339 344 352 355 338 342 314 313 212 214 230 231 234 219 191 187 172 179 175 185 196 192 191 193
314 303 305 312 284 339 359 1 359 355 352 356 359 358 359 3 352 354 3 0 349 8 10 7 20 24 40 61 42 214 226 231 249 221 183 182 167 160 256 267 249 247 229 226
308 294 298 331 317 320 332 3 1 5 2 5 6 2 7 18 13 6 4 1 13 21 25 32 44 51 45 49 45 26 25 5 214 214 197 189 199 194 189 202 251 254 232 226
311 297 305 322 332 316 307 2 5 13 7 13 18 17 27 27 30 24 23 21 33 38 37 44 45 49 51 46 47 45 45 42 44 47 48 200 217 197 195 211 224 240 234 223
313 320 305 296 309 285 322 345 4 20 17 24 24 28 26 36 44 41 39 37 42 46 43 45 52 54 47 46 47 47 46 48 50 50 51 48 46 53 51 59 60 59 264 249
334 304 296 305 286 20 42 4 37 30 17 24 27 28 27 22 26 33 40 44 40 44 46 44 45 47 54 56 53 45 45 46 47 49 52 54 52 51 47 44 37 49 52 46
310 299 348 44 93 82 78 55 40 29 26 358 19 22 27 23 24 31 36 39 55 59 54 52 50 50 53 51 53 60 54 48 49 49 51 53 53 56 56 56 60 56 56 52
Height
752 752 756 756 760 758 764 756 770 754 764 774 780 781 778 775 777 777 776 773 771 769 768 766 764 762 761 763 764 766 768 769 771 775 779 783 786 789 792 796 799 803 806 808
766 751 761 764 766 765 766 763 767 766 766 773 775 776 777 777 779 780 780 777 775 772 770 768 767 765 762 761 762 763 764 765 768 770 772 776 779 783 787 789 792 796 799 802
772 756 765 776 760 771 767 773 772 776 781 779 780 781 780 777 777 783 782 780 777 774 772 770 768 766 763 760 758 757 758 761 763 765 767 769 773 776 779 783 786 789 792 795
767 775 794 773 771 773 776 777 776 778 780 781 782 779 776 773 779 780 780 780 778 774 771 770 767 764 762 759 756 754 754 755 757 760 762 764 766 769 771 774 778 782 785 787
776 769 774 781 780 781 783 777 776 779 779 780 781 778 770 775 777 778 778 776 774 774 771 769 766 762 759 756 754 751 749 750 752 755 756 758 760 762 765 768 770 773 777 780
770 781 783 780 781 779 779 787 778 782 784 784 784 787 773 772 777 776 775 773 771 770 768 765 762 760 757 754 750 749 746 742 744 746 749 752 754 756 759 762 764 766 769 771
767 778 777 780 781 780 797 795 784 784 785 786 789 786 782 779 775 773 770 767 766 765 762 760 758 757 753 751 748 744 741 740 739 741 740 744 748 750 752 755 758 760 761 763
782 790 791 782 781 793 787 782 782 784 786 786 785 781 778 775 772 768 762 761 761 759 756 754 753 751 749 747 745 742 739 735 730 729 733 735 741 744 745 748 752 754 756 757
783 781 783 785 787 784 784 786 785 786 784 783 780 776 772 768 765 762 759 755 754 752 749 748 746 745 741 740 740 739 735 734 733 724 714 736 735 737 738 740 743 744 746 747
789 782 781 783 782 783 784 785 784 783 780 777 774 769 765 761 757 755 752 749 746 745 742 739 739 737 736 735 734 734 733 730 727 730 733 734 728 729 730 730 733 735 735 737
784 778 783 780 783 784 785 784 781 779 776 773 769 765 761 756 752 749 745 742 740 739 735 732 731 730 730 728 728 727 726 725 724 723 723 724 722 722 723 723 726 729 727 730
784 788 791 788 786 786 784 781 778 774 771 767 765 761 758 753 748 744 740 737 734 731 729 724 723 722 722 722 721 720 719 718 716 716 715 716 711 716 719 720 718 722 723 725
789 789 789 786 783 780 779 778 774 771 768 766 762 758 753 747 742 739 735 730 725 722 721 717 715 714 713 713 714 713 712 712 711 711 709 707 708 712 712 713 713 716 719 722
789 789 787 783 782 780 777 773 771 771 766 762 758 753 747 740 735 729 725 721 717 715 712 709 708 706 705 706 706 706 706 705 705 704 702 702 702 703 706 706 708 711 711 714
788 788 785 781 778 778 776 771 771 765 759 755 753 749 744 735 729 721 716 712 708 706 704 701 699 698 698 698 698 698 698 697 696 695 696 695 695 698 701 701 703 704 705 708
787 784 781 780 779 776 772 767 763 762 756 750 748 744 737 730 723 716 710 705 702 698 696 692 690 689 688 688 689 689 689 688 689 687 687 690 692 694 695 696 698 699 699 703
785 783 781 780 777 774 770 767 765 762 758 753 747 741 734 727 719 708 704 699 695 692 690 688 683 682 681 681 680 680 679 677 680 684 684 686 687 687 688 690 693 693 694 697
783 782 780 779 777 774 771 767 763 759 757 752 745 738 732 725 718 711 704 697 692 688 685 682 680 678 676 674 673 674 674 672 674 677 676 677 682 683 683 685 686 687 691 692
781 781 779 777 776 774 771 768 763 759 755 751 745 738 732 725 718 711 704 697 691 687 683 680 676 674 672 669 668 668 670 669 670 672 672 674 677 679 679 680 680 684 688 688
779 779 778 776 775 774 771 768 764 759 755 750 745 739 732 725 718 711 705 699 694 687 682 676 671 668 666 664 663 666 667 666 667 669 671 673 674 677 678 681 684 680 690 691
777 778 777 777 774 771 770 767 763 760 756 750 745 741 735 727 721 714 706 699 689 685 680 674 670 667 665 663 665 666 666 665 664 666 667 670 673 676 678 681 682 683 684 680
775 774 774 775 773 768 768 765 762 760 756 751 746 740 733 729 723 715 709 703 691 684 680 675 670 668 666 666 666 666 665 665 665 665 667 669 671 672 674 676 679 679 680 684
774 773 772 772 772 769 767 764 761 759 756 751 746 741 735 732 728 721 713 708 699 689 686 681 675 671 668 667 667 667 666 666 666 666 666 669 672 672 673 675 677 679 682 683
773 772 771 771 770 768 766 764 760 759 756 751 748 744 739 736 733 728 723 716 707 701 697 690 685 681 677 675 673 673 671 670 669 667 668 670 671 672 673 674 676 678 678 677
772 771 771 769 767 766 765 763 758 758 755 752 749 745 742 740 737 734 730 724 718 712 707 703 696 691 686 687 685 683 682 680 678 676 675 675 674 673 671 673 676 676 673 676
770 769 767 765 764 764 763 760 759 760 756 753 751 747 744 741 739 737 734 731 727 723 718 715 711 708 703 698 695 695 693 692 690 687 684 683 682 679 678 678 678 677 677 678
768 765 762 763 763 763 763 763 760 760 759 757 753 750 748 746 742 738 737 735 732 730 727 723 720 718 715 712 708 705 705 704 702 699 696 694 692 689 689 689 687 681 684 685